User: anonymous
Location: Caltech
(34.1382°N, 118.1253°W)
Time: 21:30:27
(UTC-07:00)
Language:

Cosmos 1408 Rocket - Orbit

View from above orbital plane
View from above orbital plane
View from above satellite
View from above satellite

Ground track
Ground track

The orbit data is extracted from the following two-line orbital elements,

1 13553U 82092B   14212.92196994  .00000245  00000-0  26835-4 0  9660
2 13553 082.5710 133.2459 0020073 277.4755 128.0296 14.83559035721133
Epoch (UTC): 31 July 2014 22:07:38
Eccentricity: 0.0020073
inclination: 82.5710°
perigee height: 604 km
apogee height: 632 km
right ascension of ascending node: 133.2459°
argument of perigee: 277.4755°
revolutions per day: 14.83559035
mean anomaly at epoch: 128.0296°
orbit number at epoch: 72113

The dashed part of the orbit path shows where the satellite is in the earth's shadow,  

DLR